DW6561 Weather Reports


time (UTC)temp
F
wind
direction
speed
knots
gust
knots
rain 1hr
in
rain 24hr
in
rain mn
in
humidity
%
barometer
mb
20260505224506 85 334 0.0 2.6 0.00 0.00 0.00 30 1011.2
20260505223007 85 329 0.0 1.7 0.00 0.00 0.00 31 1011.3
20260505221516 84 78 0.0 3.5 0.00 0.00 0.00 31 1011.4
20260505220027 84 186 0.0 1.7 0.00 0.00 0.00 33 1011.6
20260505214519 84 305 0.0 3.5 0.00 0.00 0.00 32 1011.6
20260505211506 82 298 0.9 2.6 0.00 0.00 0.00 34 1011.8
20260505210012 82 258 0.0 3.5 0.00 0.00 0.00 35 1011.9
20260505204520 82 296 0.0 2.6 0.00 0.00 0.00 37 1012.1
20260505203022 82 310 0.0 2.6 0.00 0.00 0.00 36 1012.1
20260505201541 81 319 0.0 3.5 0.00 0.00 0.00 37 1012.2
20260505200010 80 327 0.0 2.6 0.00 0.00 0.00 36 1012.2
20260505194516 79 276 0.0 1.7 0.00 0.00 0.00 41 1012.4
20260505193032 78 331 0.0 2.6 0.00 0.00 0.00 39 1012.4
20260505190031 78 319 0.0 2.6 0.00 0.00 0.00 41 1012.5
20260505184510 77 331 0.9 5.2 0.00 0.00 0.00 41 1012.5
20260505183031 76 295 0.0 3.5 0.00 0.00 0.00 42 1012.6
20260505181521 75 315 0.0 2.6 0.00 0.00 0.00 41 1012.6
20260505180030 74 331 0.9 4.3 0.00 0.00 0.00 42 1012.5
20260505174527 73 329 0.0 2.6 0.00 0.00 0.00 43 1012.5
20260505173003 73 322 0.0 5.2 0.00 0.00 0.00 45 1012.5
20260505171512 72 299 0.0 3.5 0.00 0.00 0.00 46 1012.4
20260505170011 71 324 0.0 1.7 0.00 0.00 0.00 46 1012.3
20260505163003 70 335 0.0 2.6 0.00 0.00 0.00 47 1012.1
20260505161503 69 336 0.0 2.6 0.00 0.00 0.00 53 1011.9
20260505151508 62 345 0.0 0.9 0.00 0.00 0.00 60 1011.5
20260505124505 57 219 0.0 0.0 0.00 0.00 0.00 70 1009.8
20260505123010 57 219 0.0 0.0 0.00 0.00 0.00 69 1009.6
20260505121512 58 219 0.0 0.0 0.00 0.00 0.00 67 1009.4
20260505120014 58 219 0.0 1.7 0.00 0.00 0.00 66 1009.3
20260505114507 59 219 0.0 0.0 0.00 0.00 0.00 65 1009.3
20260505113018 60 219 0.0 0.9 0.00 0.00 0.00 62 1009.1
20260505111516 61 232 0.0 0.0 0.00 0.00 0.00 60 1008.9
20260505101510 63 163 0.9 5.2 0.00 0.00 0.00 60 1007.9
20260505100016 63 175 1.7 5.2 0.00 0.00 0.00 59 1007.7
20260505094524 63 189 0.0 0.9 0.00 0.00 0.00 52 1007.7
20260505093022 64 213 0.0 0.0 0.00 0.00 0.00 51 1007.7
20260505091529 64 213 0.0 0.0 0.00 0.00 0.00 48 1007.8
20260505090026 64 213 0.0 0.0 0.00 0.00 0.00 48 1007.7
20260505081509 65 187 0.0 3.5 0.00 0.00 0.00 47 1007.6
20260505074503 66 214 0.0 0.9 0.00 0.00 0.00 44 1007.5
20260505073007 66 217 0.0 2.6 0.00 0.00 0.00 43 1007.2
20260505070003 68 120 0.0 1.7 0.00 0.00 0.00 42 1007.0
20260505064512 68 170 0.0 1.7 0.00 0.00 0.00 39 1006.8
20260505063005 69 160 0.0 0.9 0.00 0.00 0.00 37 1006.8
20260505061510 70 141 0.0 0.0 0.00 0.00 0.00 36 1006.9
20260505054503 72 141 0.0 0.0 0.00 0.00 0.00 32 1006.4
20260505053007 73 141 0.0 0.0 0.00 0.00 0.00 31 1006.2
20260505051504 73 141 0.0 0.9 0.00 0.00 0.00 31 1006.2
20260505041504 74 172 0.0 2.6 0.00 0.00 0.00 31 1006.1
20260505040005 75 193 0.0 2.6 0.00 0.00 0.00 31 1005.9
20260505034509 76 338 0.0 0.9 0.00 0.00 0.00 30 1005.7
20260505033008 78 338 0.0 0.0 0.00 0.00 0.00 29 1005.6
20260505031518 79 342 0.0 0.0 0.00 0.00 0.00 26 1005.5
20260505024506 82 342 0.0 0.0 0.00 0.00 0.00 24 1005.5
20260505023004 83 342 0.0 0.9 0.00 0.00 0.00 22 1005.6
20260505021510 83 329 0.0 1.7 0.00 0.00 0.00 22 1005.5
20260505020019 84 321 0.0 1.7 0.00 0.00 0.00 22 1005.6
20260505013011 85 304 0.0 1.7 0.00 0.00 0.00 24 1005.9
20260505011511 86 46 0.0 1.7 0.00 0.00 0.00 22 1006.0
20260505004530 87 317 0.0 1.7 0.00 0.00 0.00 22 1006.2
20260505003024 87 308 0.0 2.6 0.00 0.00 0.00 21 1006.4
20260505001508 88 332 0.0 1.7 0.00 0.00 0.00 22 1006.5
20260505000027 89 81 0.0 1.7 0.00 0.00 0.00 22 1006.5
20260504234518 89 81 0.0 1.7 0.00 0.00 0.00 20 1006.5
20260504233012 89 296 0.9 2.6 0.00 0.00 0.00 21 1006.5
20260504231501 89 83 0.9 2.6 0.00 0.00 0.00 21 1006.6